Terminal Aerodrome Forecast
Issued by NWS Chicago, IL

Home | Current Version | Previous Version | Graphics & Text | Print | Product List | Glossary On
Versions: 1 2 3 4 5 6 7 8 9 10 11 12 13 14 15 16 17 18 19 20 21 22 23 24 25 26 27 28 29 30 31 32 33
000
FTUS43 KLOT 021409 AAA
TAFRFD
TAF AMD
KRFD 021409Z 0214/0312 24012G19KT P6SM SCT250
     FM021600 23016G29KT P6SM SCT250
     FM022300 23017G26KT P6SM VCSH SCT080 BKN180
      TEMPO 0302/0304 3SM TSRA BKN040CB
     FM030500 28008KT P6SM BKN040 BKN100
     FM031100 31008KT P6SM SCT025=

USA.gov is the U.S. government's official web portal to all federal, state and local government web resources and services.